Location: Unspecified
(0.0000°N, 0.0000°E)
Time: 02:49:09
(UTC+00:00)

Explorer 11/Cluster Stage 4 - Pass Details

Date: 23 April 2026
Orbit: 463 x 1174 km, 28.8° (Epoch: 15 May)

Event Time Altitude Azimuth Distance (km) Brightness Sun altitude
Exits shadow 05:04:37 18° 284° (WNW) 1,267 7.1 -13.1°
Maximum altitude 05:06:42 30° 332° (NNW) 965 6.9 -12.6°
Drops below altitude 10° 05:10:30 10° 34° (NE) 1,902 9.3 -11.7°
Sets 05:13:15 0° 45° (NE) 2,926 10.6 -11.0°
